Location: *
(34.0486°S, 61.7880°E)
Time: 16:47:23
(UTC+00:00)

Cosmos 2251 Rocket - Pass Details

Date: 01 April 2020
Orbit: 765 x 791 km, 74.0° (Epoch: 26 May)

Event Time Altitude Azimuth Distance (km) Brightness Sun altitude
Rises 14:03:15 0° 196° (SSW) 3,270 6.9 -4.1°
Reaches altitude 10° 14:05:39 10° 195° (SSW) 2,340 6.2 -4.6°
Maximum altitude 14:10:59 81° 107° (ESE) 795 3.5 -5.7°
Drops below altitude 10° 14:16:17 10° 19° (NNE) 2,326 5.8 -6.8°
Sets 14:18:39 0° 18° (NNE) 3,250 6.6 -7.3°
